WetterOnline ( https://www.wetteronline.de )

Wetter aktuell Dietmannsried

Aktuelles Wetter: Kempten (705m)

6-stündlich | Neueste Meldungen
Ortszeit Temperatur Wetter
So, 26.05. 8:00 11.2° C wolkenlos
So, 26.05. 2:00 9.2° C bewölkt
Sa, 25.05. 20:00 12.5° C bewölkt
Sa, 25.05. 14:00 15.0° C bedeckt
Sa, 25.05. 8:00 9.3° C wolkig
Sa, 25.05. 2:00 7.3° C Nebel
Fr, 24.05. 20:00 9.8° C Regen
Fr, 24.05. 14:00 15.9° C wolkig
Ortszeit Temperatur Wetter
So, 26.05. 13:00 19.6° C leicht bewölkt
So, 26.05. 12:30 19.6° C wolkig
So, 26.05. 12:20 19.6° C wolkig
So, 26.05. 12:10 19.9° C wolkig
So, 26.05. 12:00 18.8° C fast wolkenlos
So, 26.05. 11:50 18.8° C fast wolkenlos
So, 26.05. 11:30 18.7° C wolkenlos
So, 26.05. 11:00 18.3° C wolkenlos
So, 26.05. 10:30 16.9° C wolkenlos
So, 26.05. 10:00 15.9° C wolkenlos
Ortszeit Relative Feuchte Sichtweite
So, 26.05. 8:00 81% 50 km
So, 26.05. 2:00 96% 25 km
Sa, 25.05. 20:00 79% >70 km
Sa, 25.05. 14:00 67% >70 km
Sa, 25.05. 8:00 89% >70 km
Sa, 25.05. 2:00 98% 2.0 km
Fr, 24.05. 20:00 95% 3.7 km
Fr, 24.05. 14:00 57% 50 km
Ortszeit Relative Feuchte Sichtweite
So, 26.05. 13:00 45% 55 km
So, 26.05. 12:30 46% >70 km
So, 26.05. 12:20 46% -
So, 26.05. 12:10 54% -
So, 26.05. 12:00 50% 50 km
So, 26.05. 11:50 50% -
So, 26.05. 11:30 50% 60 km
So, 26.05. 11:00 56% 55 km
So, 26.05. 10:30 61% >70 km
So, 26.05. 10:00 65% 60 km
Ortszeit Niederschlagsmenge Niederschlagsart
So, 26.05. 8:00 0.1 l/m2 in 12 Std. -
So, 26.05. 2:00 0.0 l/m2 in 6 Std. -
Sa, 25.05. 20:00 0.1 l/m2 in 12 Std. Regen
Sa, 25.05. 14:00 0.0 l/m2 in 6 Std. -
Sa, 25.05. 8:00 17 l/m2 in 12 Std. -
Sa, 25.05. 2:00 17 l/m2 in 6 Std. Regen
Fr, 24.05. 20:00 18 l/m2 in 12 Std. Regen, Niederschlag
Fr, 24.05. 14:00 0.0 l/m2 in 6 Std. -
Ortszeit Niederschlagsmenge Niederschlagsart
So, 26.05. 13:00 0.0 l/m2 in 1 Std. -
So, 26.05. 12:30 0.0 l/m2 in 30 Min -
So, 26.05. 12:20 keine Meldung -
So, 26.05. 12:10 keine Meldung -
So, 26.05. 12:00 0.0 l/m2 in 1 Std. -
So, 26.05. 11:50 keine Meldung -
So, 26.05. 11:30 0.0 l/m2 in 30 Min -
So, 26.05. 11:00 0.0 l/m2 in 1 Std. -
So, 26.05. 10:30 0.0 l/m2 in 30 Min -
So, 26.05. 10:00 0.0 l/m2 in 1 Std. -
Ortszeit Stärke Spitze Richtung
km/h Bft. km/h Grad Sektor
So, 26.05. 8:00 7 2 14 140° SO
So, 26.05. 2:00 7 2 13 110° O
Sa, 25.05. 20:00 6 1 22 120° SO
Sa, 25.05. 14:00 7 2 18 80° O
Sa, 25.05. 8:00 4 1 14 150° SO
Sa, 25.05. 2:00 7 2 22 120° SO
Fr, 24.05. 20:00 14 3 36 190° S
Fr, 24.05. 14:00 7 2 22 10° N
Ortszeit Stärke Spitze Richtung
km/h Bft. km/h Grad Sektor
So, 26.05. 13:00 9 2 17 70° O
So, 26.05. 12:30 7 2 14 120° SO
So, 26.05. 12:20 7 2 - 120° SO
So, 26.05. 12:10 7 2 - 120° SO
So, 26.05. 12:00 6 1 17 60° NO
So, 26.05. 11:50 6 1 - 60° NO
So, 26.05. 11:30 6 1 17 110° O
So, 26.05. 11:00 7 2 11 90° O
So, 26.05. 10:30 4 1 11 130° SO
So, 26.05. 10:00 6 1 9 90° O
Ortszeit Untergrenze Bedeckung Gattung
total tief tief mittel hoch
So, 26.05. 8:00 - 0/8 0/8 - - -
So, 26.05. 2:00 1800 m 7/8 7/8 - - -
Sa, 25.05. 20:00 2400 m 7/8 7/8 - - -
Sa, 25.05. 14:00 870 m 8/8 8/8 - - -
Sa, 25.05. 8:00 2700 m 8/8 8/8 - - -
Sa, 25.05. 2:00 - 0/8 0/8 - - -
Fr, 24.05. 20:00 510 m 8/8 8/8 - - -
Fr, 24.05. 14:00 960 m 6/8 6/8 - - -
Ortszeit Bedeckungsgrad in Achtel und Wolkenuntergrenze
So, 26.05. 13:00 1(1440m) 3(9000m)
So, 26.05. 12:30 7(9000m)
So, 26.05. 12:20 7(9000m)
So, 26.05. 12:10 6
So, 26.05. 12:00 1(9000m)
So, 26.05. 11:50 1(9000m)
So, 26.05. 11:30 keine Wolken
So, 26.05. 11:00 keine Wolken
So, 26.05. 10:30 keine Wolken
So, 26.05. 10:00 keine Wolken
Ortszeit Luftdruck NN (hPa) Tendenz (hPa in 3 Std.)
So, 26.05. 8:00 1019 + 0,3
So, 26.05. 2:00 1020 + 0,1
Sa, 25.05. 20:00 1018 + 0,9
Sa, 25.05. 14:00 1017 - 0,6
Sa, 25.05. 8:00 1019 + 0,3
Sa, 25.05. 2:00 1020 - 0,5
Fr, 24.05. 20:00 1020 + 2,9
Fr, 24.05. 14:00 1016 - 0,7
Ortszeit Luftdruck NN (hPa) Tendenz (hPa in 3 Std.)
So, 26.05. 13:00 1017 - 0,1
So, 26.05. 12:30 1017 - 0,2
So, 26.05. 12:20 1017 keine Meldung
So, 26.05. 12:10 1017 keine Meldung
So, 26.05. 12:00 1017 - 0,1
So, 26.05. 11:50 1017 keine Meldung
So, 26.05. 11:30 1017 + 0,1
So, 26.05. 11:00 1017 0,0
So, 26.05. 10:30 1018 - 0,2
So, 26.05. 10:00 1018 0,0
Ortszeit Schneehöhe (cm)
So, 26.05. 8:00 0
So, 26.05. 2:00 0
Sa, 25.05. 20:00 0
Sa, 25.05. 14:00 0
Sa, 25.05. 8:00 0
Sa, 25.05. 2:00 0
Fr, 24.05. 20:00 0
Fr, 24.05. 14:00 0
Ortszeit Schneehöhe (cm)
So, 26.05. 13:00 0
So, 26.05. 12:30 0
So, 26.05. 12:20 0
So, 26.05. 12:10 -
So, 26.05. 12:00 0
So, 26.05. 11:50 0
So, 26.05. 11:30 0
So, 26.05. 11:00 0
So, 26.05. 10:30 0
So, 26.05. 10:00 0
Link zu dieser Seite / Seite empfehlen

Das Wetter in ...